Probability
21 18 14 12 11 11 10 9 9 8 6 5 4 4 4 4 4 2 1 0 0 0 0 0 1 1 1 1 2 3 3 3 3 3 3 3 4 5 9 14 17 17 18
14 13 10 9 8 8 9 8 9 9 8 6 5 5 5 6 5 3 2 1 0 0 0 0 0 0 1 2 2 2 3 3 3 3 3 3 3 4 6 11 15 16 16
7 7 6 5 5 6 9 11 14 15 14 11 7 5 7 8 6 5 5 3 1 0 0 0 0 0 1 1 1 2 2 3 3 3 3 3 3 3 4 6 9 12 14
4 4 4 3 4 5 11 21 29 30 28 22 14 8 8 7 7 7 7 4 1 0 0 0 0 0 0 0 0 1 1 2 3 3 3 3 3 3 3 3 5 8 10
3 3 3 3 3 4 12 31 47 50 45 37 25 16 12 10 8 8 6 3 2 1 0 0 0 0 1 1 1 1 1 2 3 3 3 3 3 3 3 3 3 4 6
3 3 3 3 3 4 11 33 57 63 58 48 35 24 18 13 11 8 5 3 3 2 1 0 0 1 2 2 2 2 2 3 3 3 3 3 3 3 3 3 3 3 4
3 3 3 3 4 6 13 32 56 66 60 50 37 27 19 14 11 8 5 3 3 3 2 1 1 2 3 3 3 3 3 3 3 3 3 3 3 3 3 3 2 2 2
3 3 3 3 5 10 19 33 50 58 51 41 33 25 16 11 8 6 4 3 3 3 3 1 1 3 3 3 3 3 3 3 3 3 3 3 2 2 3 3 2 2 1
3 3 3 3 6 13 24 36 44 44 34 27 22 17 11 8 6 4 3 3 3 3 3 3 3 3 3 3 3 3 3 3 3 3 3 3 3 3 3 3 3 2 1
3 3 3 4 6 13 24 32 34 30 21 13 10 8 7 6 4 3 3 3 3 3 3 3 3 3 3 3 3 3 3 3 3 3 3 3 3 3 3 3 3 3 3
3 3 3 4 6 11 17 22 22 18 12 6 2 2 4 5 4 3 3 4 4 3 3 3 3 3 3 3 3 3 3 3 3 3 3 3 3 3 3 3 3 3 3
1 2 3 4 5 6 9 11 11 9 7 4 1 1 3 4 3 3 4 4 5 5 4 3 3 3 3 3 3 3 3 3 3 3 3 3 3 3 3 3 3 3 3
2 5 10 12 9 7 6 6 5 4 3 2 1 1 2 4 4 3 4 5 7 9 7 5 3 3 3 3 3 3 3 3 3 3 3 3 3 3 3 3 3 3 3
7 14 26 30 24 16 10 6 3 2 1 1 0 0 2 4 5 4 4 6 9 11 10 7 4 3 3 3 3 3 3 3 3 3 3 3 3 3 3 3 3 3 3
11 21 39 49 43 31 19 10 4 3 2 1 0 0 1 3 4 5 5 7 9 11 11 9 5 3 3 3 2 2 2 2 2 3 3 3 3 3 3 2 2 2 2
11 22 40 56 59 48 34 22 15 11 9 6 3 3 4 5 5 5 5 6 9 12 14 12 8 4 3 1 1 1 1 1 1 1 2 3 3 3 2 1 1 1 1
10 19 35 55 66 62 52 42 32 24 21 16 12 11 12 12 11 9 9 12 15 17 17 15 10 6 3 1 0 0 0 0 0 1 2 2 2 3 3 2 1 1 1
8 15 28 44 57 61 62 58 46 34 28 25 23 21 19 19 19 19 20 25 27 23 18 13 10 8 5 2 1 0 0 0 0 1 2 3 3 3 3 3 2 2 2
10 15 20 29 46 60 69 68 55 41 33 31 32 29 26 26 26 27 31 34 32 27 18 10 8 8 5 2 1 0 0 0 0 1 3 3 3 2 2 2 3 3 3
17 21 23 32 55 76 82 78 67 56 47 42 42 39 36 35 32 34 38 36 31 24 15 8 7 6 5 2 1 0 0 1 1 2 3 3 1 1 1 1 2 3 3
27 33 41 53 73 89 92 87 81 74 67 58 52 48 45 40 35 37 41 38 29 19 12 10 8 5 4 3 1 0 0 1 2 3 3 2 1 0 0 1 2 2 2
42 47 59 71 81 89 91 89 87 84 78 70 61 55 50 41 34 37 40 37 28 18 13 12 9 6 5 4 2 0 0 1 2 3 3 2 1 0 0 0 1 1 1
48 52 63 72 79 84 88 88 87 85 80 73 66 59 53 46 40 38 37 33 25 17 13 12 9 7 7 7 4 2 0 0 1 2 1 1 0 0 0 0 0 0 0
38 41 49 59 66 72 77 81 82 82 79 73 66 58 52 50 48 43 37 32 24 16 13 12 8 6 8 8 6 3 1 1 1 1 1 1 1 1 0 1 1 0 0
20 24 30 39 46 53 59 65 70 73 73 67 57 49 43 43 45 41 33 27 21 14 10 8 6 5 6 5 3 2 2 2 2 2 2 2 2 2 2 2 2 1 1
11 14 18 24 31 39 46 54 61 64 64 60 49 40 36 37 37 34 25 18 13 9 5 4 3 4 4 2 1 1 1 1 1 1 1 1 2 2 3 3 3 2 2
Wind_Speed
10 9 10 11 11 9 8 6 6 5 3 1 0 0 1 1 1 2 4 2 3 4 4 4 5 4 4 5 5 4 5 4 3 3 4 5 7 7 6 6 6 7 8
10 9 9 10 11 10 8 7 6 6 4 2 1 1 1 2 1 1 3 2 3 3 4 5 4 5 5 5 4 4 3 5 5 3 4 4 5 3 4 3 4 4 3
12 11 11 11 11 10 10 8 7 7 5 3 2 2 1 2 1 1 1 3 2 2 2 3 3 4 5 4 5 4 5 4 5 4 3 3 3 5 3 1 1 1 1
12 11 11 11 11 11 10 8 8 6 5 4 3 2 2 2 2 1 1 2 1 1 1 1 3 4 4 5 5 5 5 5 4 5 4 3 2 2 4 4 1 2 2
13 13 12 11 11 10 10 9 8 7 5 4 3 3 3 2 2 3 2 1 3 3 2 1 1 3 4 3 4 5 5 4 5 4 5 5 3 3 4 5 4 2 2
13 12 12 9 8 8 8 9 9 7 6 5 4 3 3 2 3 3 3 3 2 1 2 2 2 2 3 4 4 5 6 4 5 4 4 5 4 4 3 4 4 4 3
12 12 11 10 8 8 7 7 10 8 7 6 5 3 2 2 4 4 4 3 2 1 3 2 1 2 3 4 4 4 5 5 5 4 4 4 4 4 4 4 4 5 5
12 12 12 10 8 8 7 7 8 8 6 5 4 3 2 2 3 1 2 3 2 2 1 1 2 3 4 5 4 4 5 5 4 5 5 4 4 4 4 4 4 5 5
13 12 12 11 9 8 7 7 7 7 5 4 4 4 4 4 3 3 3 4 3 3 2 2 3 4 4 5 5 4 5 5 5 5 5 4 4 4 4 4 3 4 5
11 12 11 11 9 8 7 7 7 6 4 4 4 4 5 5 5 4 4 3 4 4 4 4 4 5 5 5 5 5 5 5 5 4 5 5 4 4 4 4 4 4 4
13 11 10 9 9 9 9 7 7 6 5 4 3 2 2 3 3 4 5 5 5 4 4 5 5 5 6 6 5 6 6 6 6 6 6 6 5 4 4 4 4 4 4
9 10 10 9 8 9 9 9 8 7 6 6 5 5 4 4 4 5 5 4 4 5 5 5 5 6 6 5 6 6 6 6 6 6 6 6 6 6 5 4 5 5 5
7 7 9 9 8 8 8 9 9 8 7 7 6 6 6 5 5 4 4 4 4 4 5 5 5 6 6 6 6 6 6 6 6 6 6 6 6 6 5 5 5 5 6
6 6 7 8 7 7 7 6 7 7 7 6 6 5 5 5 4 4 4 4 4 5 5 5 6 6 6 6 6 6 6 6 6 6 6 6 7 7 6 6 6 6 6
7 7 7 8 7 7 7 6 6 6 6 5 5 5 5 5 4 4 4 4 5 6 5 5 5 5 6 7 6 4 6 5 5 6 6 8 9 10 8 7 5 5 4
7 8 9 10 9 8 8 8 7 7 7 6 6 5 4 4 4 4 4 5 5 5 5 6 6 7 8 2 2 2 5 6 6 7 7 8 10 12 14 15 12 9 7
6 7 9 10 10 10 9 9 8 8 8 8 7 6 5 5 5 5 4 4 4 5 5 6 6 7 7 7 7 7 5 7 7 7 7 9 11 8 6 9 14 14 15
3 5 7 9 11 11 11 9 10 9 9 9 8 7 6 6 4 4 4 4 4 5 5 6 6 6 8 8 9 10 8 8 9 9 9 9 9 10 8 7 6 7 8
2 3 5 8 10 11 11 11 10 10 10 10 8 7 6 5 4 4 4 4 4 5 6 6 7 7 7 8 11 11 7 8 10 10 10 10 9 10 10 7 7 7 7
2 1 4 5 6 8 9 10 11 10 10 9 8 7 6 5 5 4 4 5 4 5 6 7 7 7 7 8 11 12 7 8 8 7 8 11 12 11 9 7 7 7 7
4 2 1 2 3 5 7 8 8 8 7 6 6 6 6 6 6 5 5 5 6 6 7 7 7 7 9 10 12 14 9 8 8 7 6 4 6 9 10 9 7 8 6
10 8 4 2 1 2 4 5 5 4 4 5 6 6 6 7 6 6 6 6 6 7 8 8 9 8 8 10 11 16 16 12 8 7 7 3 2 5 7 8 9 10 7
13 12 10 7 5 2 1 2 3 3 3 4 5 5 6 6 5 6 7 7 6 8 8 7 7 6 4 5 11 14 16 16 10 8 10 8 7 7 8 13 15 11 8
12 12 12 10 8 6 4 2 1 2 3 4 5 5 6 7 7 6 7 7 7 7 7 6 6 5 4 3 3 5 7 10 10 9 10 13 15 13 12 11 10 9 9
11 11 10 9 9 7 6 4 4 2 3 4 5 6 8 8 7 8 8 9 8 8 7 6 5 5 6 1 2 1 3 3 2 3 6 7 8 8 8 8 9 8 9
10 10 10 10 10 8 6 5 3 3 4 6 6 7 7 7 8 8 9 14 15 15 16 15 11 8 9 8 8 8 8 6 4 4 8 9 9 9 8 8 7 7 8
Wind_Direction
141 142 144 145 143 147 149 154 156 150 175 176 189 86 59 354 29 114 108 66 33 12 322 350 346 329 341 353 332 338 324 308 281 278 283 269 253 233 220 220 221 219 216
145 155 164 159 158 159 159 165 164 163 188 167 159 188 254 280 270 81 127 98 51 356 344 28 339 351 342 314 317 326 317 308 309 300 298 300 292 302 250 212 217 230 218
160 169 178 171 171 170 175 180 176 173 185 182 211 239 200 257 275 50 87 82 41 346 3 347 341 346 324 341 347 328 321 310 310 302 299 305 323 338 311 292 176 201 240
170 177 183 183 182 179 181 178 169 173 178 191 235 274 284 295 319 305 91 83 287 261 314 6 352 345 322 324 328 16 337 322 311 313 306 283 301 308 318 321 300 207 200
179 182 187 186 186 184 181 172 167 172 178 195 222 245 284 321 355 10 6 329 261 222 197 135 50 330 305 333 349 327 323 316 314 322 323 319 300 250 259 291 304 287 236
182 180 186 180 184 184 180 168 162 170 179 195 221 230 264 302 317 318 306 292 282 244 147 136 106 302 312 344 328 316 306 308 316 318 313 312 310 308 301 299 304 299 286
182 179 185 185 186 187 184 169 159 168 180 196 212 220 229 261 258 251 264 266 294 324 93 74 62 303 311 296 280 286 286 291 296 299 291 298 305 303 303 306 305 306 303
186 187 189 189 186 189 185 172 157 161 176 192 193 193 215 254 269 266 331 322 309 307 66 213 233 252 264 276 287 293 285 280 287 286 289 289 286 287 291 288 298 303 300
186 189 188 187 185 186 172 157 144 154 172 189 177 181 204 234 279 313 275 261 257 277 310 310 273 256 254 257 266 268 278 285 278 279 286 280 286 285 282 279 270 275 286
191 191 186 183 178 166 146 142 142 156 171 192 203 213 192 208 222 239 266 295 298 285 275 265 269 270 267 259 254 261 265 268 267 262 266 275 276 291 302 298 288 272 268
193 189 180 173 160 151 146 146 148 160 177 198 205 238 233 242 244 239 239 244 251 263 269 266 262 262 262 258 252 252 260 264 265 268 268 264 265 270 285 294 294 290 281
191 180 166 153 154 160 158 159 166 175 183 190 192 201 219 232 245 254 252 250 251 253 261 264 266 267 268 263 260 261 266 266 268 267 268 267 265 258 259 269 277 280 284
183 174 156 153 161 167 168 169 177 184 185 184 186 198 210 224 232 244 254 257 258 259 264 267 267 269 274 274 270 266 264 264 266 268 268 268 267 263 257 260 266 275 279
169 170 151 150 161 166 166 172 180 182 183 180 187 199 209 224 235 244 250 254 256 257 257 262 265 269 272 273 269 265 264 263 264 264 264 265 262 259 255 256 252 258 267
176 174 164 159 165 170 171 178 184 181 182 181 194 202 205 215 226 240 248 253 259 266 263 266 268 269 269 267 273 269 271 280 280 274 269 267 265 260 253 256 253 260 266
192 186 177 173 177 182 183 186 190 184 177 190 204 205 206 218 228 236 244 248 251 259 264 266 270 270 273 245 195 260 291 291 283 279 275 275 268 257 242 238 242 245 252
206 195 184 181 182 186 187 191 190 187 185 193 204 205 205 218 227 245 254 261 267 268 265 264 265 265 266 251 223 226 253 268 269 269 269 273 273 285 269 238 234 240 243
234 201 189 184 184 187 189 191 191 191 194 196 202 204 206 216 220 231 248 256 259 262 265 266 268 267 267 253 231 225 239 259 261 259 257 257 263 270 275 276 260 243 240
257 202 203 205 191 191 188 187 196 194 199 202 201 203 203 209 218 235 246 253 256 260 262 264 259 259 261 244 227 218 244 254 258 256 255 252 251 251 248 248 255 258 258
325 230 224 222 193 187 184 186 197 199 203 203 197 194 191 197 212 228 237 247 252 260 264 262 257 258 261 251 228 211 239 256 260 259 256 254 251 250 229 230 244 254 258
345 329 258 234 209 183 181 190 196 201 200 197 194 189 186 193 206 220 226 233 245 255 260 265 264 257 254 253 232 213 228 249 261 267 271 271 259 237 225 226 242 253 266
3 359 0 334 296 162 172 191 203 202 194 195 195 193 191 211 215 212 222 230 240 253 257 256 256 251 244 241 229 213 217 233 252 264 271 277 239 226 227 228 242 249 251
14 10 9 5 5 19 138 210 214 208 211 207 207 208 207 212 219 223 233 237 237 247 254 256 259 256 245 231 222 214 217 224 235 256 268 279 259 250 244 241 241 240 239
17 15 9 6 6 3 3 346 282 221 222 227 223 226 228 229 228 229 238 241 243 247 250 254 265 272 267 251 209 204 215 225 234 250 262 260 253 245 249 254 240 228 232
16 14 9 2 359 1 356 356 354 337 277 260 255 255 251 246 241 236 236 239 242 243 248 256 260 268 273 242 141 253 269 275 294 295 274 269 263 253 243 239 236 229 222
11 7 3 358 353 351 350 349 342 318 293 279 268 264 262 256 249 246 245 233 234 240 231 230 237 251 251 251 241 236 238 243 238 254 260 262 262 260 258 252 244 235 230